This demonstration page uses our WeatherBlox Daily Observations layout. Learn more.

Left ArrowRight Arrow

39.01783, -85.05884

Hourly Observations for November 16, 2018

Temp ( °F °C ) Dew Point ( °F °C ) Humidity (%) Winds ( mph kmh ) Pressure ( in mb ) Visibility ( mi km ) Precip ( " mm )
12:52 am 00:52 Cloudy 31 -0.6 28 -2.2 89 89 SW 12 19 30.03 1017 7 11 0.00 0.00
1:15 am 01:15 Cloudy 31 -0.6 28 -2.2 89 89 SW 10 17 30.06 1018 8 13 0.00 0.00
1:52 am 01:52 Cloudy 31 -0.6 28 -2.2 89 89 WSW 12 19 30.04 1017 8 13 0.00 0.00
2:20 am 02:20 Cloudy with Mist and Fog 30 -1.1 28 -2.2 92 92 WSW 12 19 30.09 1019 6 10 0.00 0.00
2:52 am 02:52 Cloudy with Mist and Fog 30 -1.1 28 -2.2 92 92 SW 13 20 30.03 1017 6 10 0.00 0.00
3:52 am 03:52 Cloudy with Mist and Fog 30 -1.1 28 -2.2 92 92 SW 14 22 30.02 1017 6 10 0.00 0.00
4:52 am 04:52 Cloudy with Mist and Fog 30 -1.1 28 -2.2 92 92 SSW 7 11 30.01 1016 5 8 0.00 0.00
5:52 am 05:52 Cloudy with Mist and Fog 31 -0.6 28 -2.2 89 89 SSW 9 15 30.00 1016 6 10 0.00 0.00
6:52 am 06:52 Cloudy with Mist and Fog 31 -0.6 29 -1.7 92 92 SW 10 17 30.00 1016 6 10 0.00 0.00
7:12 am 07:12 Cloudy 31 -0.6 29 -1.7 92 92 SSW 10 17 30.03 1017 7 11 0.00 0.00
7:52 am 07:52 Cloudy 31 -0.6 29 -1.7 92 92 SSW 9 15 30.01 1016 7 11 0.00 0.00
8:52 am 08:52 Cloudy 32 0 29 -1.7 88 88 SW 12 19 30.01 1016 8 13 0.00 0.00
9:52 am 09:52 Cloudy 33 0.6 30 -1.1 89 89 SSW 14 22 30.02 1017 8 13 0.00 0.00
10:12 am 10:12 Mostly Cloudy 35 1.7 31 -0.6 85 85 SW 14 22 30.03 1017 10 16 0.00 0.00
10:52 am 10:52 Cloudy 35 1.7 31 -0.6 85 85 WSW 10 17 30.03 1017 10 16 0.00 0.00
11:27 am 11:27 Cloudy 35 1.7 31 -0.6 85 85 WSW 12 19 30.06 1018 10 16 0.00 0.00
11:52 am 11:52 Cloudy 36 2.2 31 -0.6 82 82 W 9 15 30.04 1017 8 13 0.00 0.00
12:52 pm 12:52 Cloudy 37 2.8 32 0 82 82 SW 12 19 30.03 1017 7 11 0.00 0.00
1:52 pm 13:52 Cloudy 38 3.3 33 0.6 83 83 SW 9 15 30.04 1017 7 11 0.00 0.00
2:52 pm 14:52 Cloudy 39 3.9 34 1.1 82 82 WSW 7 11 30.05 1018 7 11 0.00 0.00
3:52 pm 15:52 Cloudy with Haze 39 3.9 34 1.1 82 82 WSW 7 11 30.07 1018 6 10 0.00 0.00
4:21 pm 16:21 Cloudy with Mist and Fog 39 3.9 35 1.7 86 86 SW 5 7 30.09 1019 6 10 0.00 0.00
4:52 pm 16:52 Cloudy 39 3.9 34 1.1 82 82 W 12 19 30.10 1019 7 11 0.00 0.00
5:52 pm 17:52 Cloudy 39 3.9 35 1.7 86 86 W 13 20 30.12 1020 8 13 0.00 0.00
6:52 pm 18:52 Cloudy 38 3.3 34 1.1 86 86 W 10 17 30.14 1021 7 11 0.00 0.00
7:52 pm 19:52 Cloudy 38 3.3 34 1.1 86 86 W 8 13 30.15 1021 7 11 0.00 0.00
8:52 pm 20:52 Cloudy 38 3.3 35 1.7 89 89 W 5 7 30.15 1021 7 11 0.00 0.00
9:52 pm 21:52 Cloudy 38 3.3 35 1.7 89 89 Calm 30.16 1021 7 11 0.00 0.00
10:52 pm 22:52 Cloudy 38 3.3 34 1.1 86 86 WSW 3 6 30.16 1021 7 11 0.00 0.00
11:52 pm 23:52 Cloudy 38 3.3 34 1.1 86 86 SW 3 6 30.17 1022 7 11 0.00 0.00

Powered by AerisWeather